NNSS 20 (TRANSIT 20)

Last updated on Sat Sep 05 2026 00:03:34 GMT+0000 (Coordinated Universal Time)

1 06909U 73081A 26247.25235655 .00000118 00000+0 10997-3 0 9995 2 06909 89.8586 251.1137 0154502 2.8225 357.3773 13.71529589840003
UTC large
Height (km)
Speed (km/s)
/
Latitude / Longitude
Inclination (degrees)
Orbital Period (minutes)
Azimuth
Elevation
Range (km)
Doppler Factor

Next 0 passes for location: London (51.5072 / 0.1276)

No passes found over London.
NNSS 20 (TRANSIT 20)